Вернуться в каталог

DELTA 1 DEB *

АктивенLEO
NORAD 15789·DEBRIS·🇺🇸 United States

Запущен Nov 6, 1973 с Vandenberg Space Force Base

Loading…

Ближайшие Пролёты (ближайшие 24 часа)

TLE

УстаревающийSource: Space-Track

Эпоха: Sep 12, 2026, 04:28 UTC

1 15789U 73086GT  26255.18657618  .00006899  00000-0  34717-1 0  9991
2 15789 103.7229  16.0406 0383720 331.6261 146.4010 12.50478380657909

Отслеживайте DELTA 1 DEB * в реальном времени с AllMySat

Download on the App Store